Weather in Goranboy

Azerbaijan     40°36′27″N   46°47′16″E
temp.,
°C
wind,
m/s
gust,
m/s
humid.,
%
clouds,
%
prec.,
mm/h
press.,
hPa
HPBL,
m
24 may, tue
tue2401:00+15nw9167244 2.5 1003664
04:00+13nw7137953 2.5 1004422
07:00+14wnw6127125 0.0 1006573
10:00+17nw7854100 0.1 1006709
13:00+18nw5650100 1.2 1007944
16:00+20nw344681 3.0 10071449
19:00+15wsw3379100 3.6 1009234
22:00+14sw237899 10.5 1012155
25 may, wed
wed2501:00+12nnw4591100 1.6 1014460
04:00+12nnw1285100 5.0 1015218
07:00+13wnw1379100 1.1 1016182
10:00+14ne127155 1.5 1017629
13:00+18nw244599 0.1 10171942
16:00+18ese135076 0.2 1017985
19:00+17se77605 0.0 1018556
22:00+13se597995 0.2 1022497
26 may, thu
thu2601:00+13sse348388 0.3 1022214
04:00+12ese238760 0.5 1023127
07:00+13wsw01839 0.0 1023206
10:00+16n336424 0.0 10231038
13:00+18n225485 0.1 10221376
16:00+20ese114835 0.1 10211458
19:00+20sse22500 0.0 1020868
22:00+17sw22620 0.0 102115
27 may, fri
fri2701:00+15sse12680 0.0 102128
04:00+13sse22790 0.0 102141
07:00+15se11720 0.0 1022131
10:00+18ene21641 0.0 1021778
13:00+21ene215252 0.0 10191448
16:00+23ese214537 0.0 10181616
19:00+22se33481 0.0 10181041
22:00+19s33620 0.0 101943
28 may, sat
sat2801:00+16se34740 0.0 1020118
04:00+15sse33780 0.0 101972
07:00+16ese22722 0.0 1020151
10:00+20e33581 0.0 1019740
13:00+23ese554511 0.0 10171364
16:00+25se54391 0.0 10151537
19:00+24se454068 0.1 1015885
22:00+20s46520 0.1 1016102